Back to catalog

STARLINK-35599

AliveCommunicationsVLEO
NORAD 66102·PAYLOAD·🇺🇸 United States

Launched Oct 19, 2025 from Vandenberg Space Force Base

Loading…

Next Passes (next 24 hours)

TLE

FreshSource: CelesTrak SupGP

Epoch: Sep 14, 2026, 21:26 UTC

1 66102C 25236S   26257.89354167  .00014478  00000+0  42799-3 0  2572
2 66102  53.1589 301.6199 0001170  84.5321 172.4132 15.34367150    15

Track STARLINK-35599 in real time with AllMySat

Download on the App Store